• Em Portugal
  • Lista de países
  • Para 7 dias
  • Temperatura da água
  • Mapas de satélite
  • Mapa do tempo
  • Widgets de tempo
  • user-avatar
    Iniciar Sessão

    Previsão horária em Victória

    Hoje, 14 Agosto, Terça-feira

    Tempo Temperatura Precipitação Vento Pressão Humidade
    00:00 +6°C° 0 mm 2 m/s 757 mmHg 95%
    01:00 +6°C° 0 mm 2 m/s 757 mmHg 96%
    02:00 +5°C° 0 mm 2 m/s 757 mmHg 96%
    03:00 +5°C° 0 mm 2 m/s 756 mmHg 96%
    04:00 +6°C° 0 mm 1 m/s 756 mmHg 97%
    05:00 +6°C° 0 mm 1 m/s 756 mmHg 97%
    06:00 +6°C° 0 mm 1 m/s 756 mmHg 97%
    07:00 +6°C° 0 mm 1 m/s 756 mmHg 97%
    08:00 +7°C° 0 mm 2 m/s 756 mmHg 93%
    09:00 +8°C° 0 mm 2 m/s 756 mmHg 90%
    10:00 +10°C° 0 mm 2 m/s 756 mmHg 88%
    11:00 +11°C° 0 mm 3 m/s 755 mmHg 84%
    12:00 +12°C° 0 mm 3 m/s 754 mmHg 80%
    13:00 +13°C° 0 mm 4 m/s 754 mmHg 76%
    14:00 +14°C° 0 mm 4 m/s 753 mmHg 76%
    15:00 +14°C° 0 mm 4 m/s 752 mmHg 76%
    16:00 +14°C° 0 mm 4 m/s 752 mmHg 75%
    17:00 +13°C° 0 mm 4 m/s 751 mmHg 78%
    18:00 +11°C° 0 mm 4 m/s 751 mmHg 81%
    19:00 +10°C° 0 mm 4 m/s 750 mmHg 84%
    20:00 +10°C° 0 mm 4 m/s 750 mmHg 82%
    21:00 +8°C° 0 mm 4 m/s 750 mmHg 80%
    22:00 +8°C° 0 mm 4 m/s 750 mmHg 77%
    23:00 +8°C° 0 mm 4 m/s 749 mmHg 74%

    Amanhã, 15 Agosto, Quarta-feira

    Tempo Temperatura Precipitação Vento Pressão Humidade
    00:00 +7°C° 0 mm 5 m/s 748 mmHg 71%
    01:00 +7°C° 0 mm 5 m/s 748 mmHg 68%
    02:00 +7°C° 0 mm 5 m/s 747 mmHg 66%
    03:00 +7°C° 0 mm 5 m/s 747 mmHg 64%
    04:00 +7°C° 0 mm 5 m/s 746 mmHg 61%
    05:00 +8°C° 0 mm 5 m/s 746 mmHg 59%
    06:00 +8°C° 0 mm 5 m/s 745 mmHg 56%
    07:00 +9°C° 0 mm 5 m/s 745 mmHg 54%
    08:00 +9°C° 0,2 mm 5 m/s 745 mmHg 59%
    09:00 +10°C° 0,2 mm 5 m/s 745 mmHg 65%
    10:00 +10°C° 0,2 mm 5 m/s 746 mmHg 70%
    11:00 +10°C° 0,4 mm 5 m/s 745 mmHg 75%
    12:00 +10°C° 0,4 mm 5 m/s 745 mmHg 79%
    13:00 +10°C° 0,4 mm 5 m/s 745 mmHg 84%
    14:00 +10°C° 0,6 mm 5 m/s 744 mmHg 86%
    15:00 +10°C° 0,6 mm 5 m/s 744 mmHg 87%
    16:00 +11°C° 0,6 mm 4 m/s 744 mmHg 89%
    17:00 +10°C° 0,1 mm 4 m/s 745 mmHg 89%
    18:00 +10°C° 0,1 mm 4 m/s 745 mmHg 89%
    19:00 +8°C° 0,1 mm 4 m/s 746 mmHg 89%
    20:00 +8°C° 0 mm 4 m/s 746 mmHg 90%
    21:00 +7°C° 0 mm 4 m/s 746 mmHg 90%
    22:00 +8°C° 0 mm 3 m/s 747 mmHg 91%
    23:00 +7°C° 0 mm 3 m/s 747 mmHg 92%

    Depois de amanhã, 16 Agosto, Quinta-feira

    Tempo Temperatura Precipitação Vento Pressão Humidade
    00:00 +5°C° 0 mm 3 m/s 747 mmHg 94%
    01:00 +4°C° 0 mm 3 m/s 747 mmHg 95%
    02:00 +4°C° 0 mm 3 m/s 747 mmHg 95%
    03:00 +3°C° 0 mm 3 m/s 747 mmHg 96%
    04:00 +3°C° 0 mm 3 m/s 747 mmHg 96%
    05:00 +4°C° 0 mm 2 m/s 748 mmHg 96%
    06:00 +4°C° 0 mm 2 m/s 748 mmHg 97%
    07:00 +3°C° 0 mm 2 m/s 748 mmHg 97%
    08:00 +4°C° 0 mm 3 m/s 749 mmHg 92%
    09:00 +7°C° 0 mm 3 m/s 749 mmHg 88%
    10:00 +8°C° 0 mm 4 m/s 749 mmHg 83%
    11:00 +10°C° 0,1 mm 4 m/s 749 mmHg 77%
    12:00 +11°C° 0,1 mm 4 m/s 749 mmHg 70%
    13:00 +12°C° 0,1 mm 5 m/s 749 mmHg 63%
    14:00 +12°C° 0,1 mm 4 m/s 748 mmHg 65%
    15:00 +12°C° 0,1 mm 4 m/s 748 mmHg 67%
    16:00 +12°C° 0,1 mm 3 m/s 748 mmHg 68%
    17:00 +10°C° 0 mm 3 m/s 748 mmHg 74%
    18:00 +9°C° 0 mm 2 m/s 749 mmHg 79%
    19:00 +7°C° 0 mm 2 m/s 749 mmHg 84%
    20:00 +7°C° 0 mm 2 m/s 749 mmHg 83%
    21:00 +8°C° 0 mm 1 m/s 750 mmHg 81%
    22:00 +8°C° 0 mm 1 m/s 750 mmHg 80%
    23:00 +8°C° 0 mm 1 m/s 750 mmHg 82%

    17 Agosto, Sexta-feira

    Tempo Temperatura Precipitação Vento Pressão Humidade
    00:00 +7°C° 0 mm 1 m/s 749 mmHg 83%
    01:00 +6°C° 0 mm 1 m/s 749 mmHg 85%
    02:00 +6°C° 0 mm 1 m/s 749 mmHg 86%
    03:00 +6°C° 0 mm 1 m/s 749 mmHg 87%
    04:00 +5°C° 0 mm 1 m/s 748 mmHg 88%
    05:00 +5°C° 0 mm 1 m/s 749 mmHg 87%
    06:00 +6°C° 0 mm 1 m/s 749 mmHg 87%
    07:00 +6°C° 0 mm 1 m/s 749 mmHg 86%
    08:00 +6°C° 0 mm 2 m/s 749 mmHg 82%
    09:00 +8°C° 0 mm 3 m/s 749 mmHg 78%
    10:00 +10°C° 0 mm 3 m/s 749 mmHg 75%
    11:00 +11°C° 0,1 mm 4 m/s 748 mmHg 71%
    12:00 +12°C° 0,1 mm 4 m/s 748 mmHg 68%
    13:00 +13°C° 0,1 mm 5 m/s 747 mmHg 64%
    14:00 +13°C° 0,1 mm 4 m/s 747 mmHg 67%
    15:00 +13°C° 0,1 mm 4 m/s 746 mmHg 71%
    16:00 +12°C° 0,1 mm 3 m/s 746 mmHg 74%
    17:00 +12°C° 0 mm 3 m/s 745 mmHg 74%
    18:00 +11°C° 0 mm 3 m/s 745 mmHg 74%
    19:00 +10°C° 0 mm 4 m/s 745 mmHg 74%
    20:00 +10°C° 0 mm 4 m/s 745 mmHg 72%
    21:00 +10°C° 0 mm 4 m/s 745 mmHg 70%
    22:00 +9°C° 0 mm 5 m/s 744 mmHg 67%
    23:00 +9°C° 0 mm 5 m/s 744 mmHg 65%

    18 Agosto, Sábado

    Tempo Temperatura Precipitação Vento Pressão Humidade
    00:00 +9°C° 0 mm 5 m/s 744 mmHg 63%
    01:00 +9°C° 0 mm 5 m/s 743 mmHg 61%
    02:00 +9°C° 0,5 mm 5 m/s 743 mmHg 72%
    03:00 +8°C° 0,5 mm 5 m/s 743 mmHg 82%
    04:00 +7°C° 0,5 mm 5 m/s 743 mmHg 92%
    05:00 +6°C° 0,1 mm 4 m/s 744 mmHg 93%
    06:00 +5°C° 0,1 mm 4 m/s 744 mmHg 95%
    07:00 +4°C° 0,1 mm 3 m/s 745 mmHg 96%
    08:00 +6°C° 0 mm 4 m/s 745 mmHg 91%
    09:00 +7°C° 0 mm 5 m/s 745 mmHg 86%
    10:00 +8°C° 0 mm 6 m/s 746 mmHg 82%
    11:00 +8°C° 0,5 mm 7 m/s 745 mmHg 82%
    12:00 +8°C° 0,5 mm 7 m/s 745 mmHg 83%
    13:00 +8°C° 0,5 mm 7 m/s 745 mmHg 84%
    14:00 +8°C° 0,3 mm 7 m/s 745 mmHg 82%
    15:00 +8°C° 0,3 mm 7 m/s 745 mmHg 81%
    16:00 +8°C° 0,3 mm 6 m/s 745 mmHg 79%
    17:00 +7°C° 0,1 mm 6 m/s 745 mmHg 81%
    18:00 +6°C° 0,1 mm 5 m/s 746 mmHg 82%
    19:00 +5°C° 0,1 mm 4 m/s 746 mmHg 84%
    20:00 +3°C° 0 mm 5 m/s 747 mmHg 84%
    21:00 +3°C° 0 mm 5 m/s 747 mmHg 85%
    22:00 +2°C° 0 mm 5 m/s 747 mmHg 85%
    23:00 +2°C° 0 mm 5 m/s 747 mmHg 85%

    19 Agosto, Domingo

    Tempo Temperatura Precipitação Vento Pressão Humidade
    00:00 +2°C° 0 mm 5 m/s 747 mmHg 86%
    01:00 +2°C° 0 mm 5 m/s 748 mmHg 86%
    02:00 +2°C° 0 mm 5 m/s 748 mmHg 86%
    03:00 +2°C° 0 mm 5 m/s 748 mmHg 85%
    04:00 +2°C° 0 mm 5 m/s 748 mmHg 85%
    05:00 +2°C° 0 mm 5 m/s 749 mmHg 85%
    06:00 +3°C° 0 mm 4 m/s 750 mmHg 85%
    07:00 +3°C° 0 mm 4 m/s 750 mmHg 84%
    08:00 +5°C° 0 mm 5 m/s 751 mmHg 78%
    09:00 +6°C° 0 mm 7 m/s 751 mmHg 72%
    10:00 +9°C° 0 mm 8 m/s 752 mmHg 66%
    11:00 +9°C° 0,1 mm 7 m/s 752 mmHg 64%
    12:00 +10°C° 0,1 mm 7 m/s 752 mmHg 61%
    13:00 +10°C° 0,1 mm 7 m/s 752 mmHg 59%
    14:00 +10°C° 0,1 mm 6 m/s 752 mmHg 62%
    15:00 +10°C° 0,1 mm 6 m/s 753 mmHg 65%
    16:00 +9°C° 0,1 mm 5 m/s 753 mmHg 68%
    17:00 +8°C° 0 mm 5 m/s 753 mmHg 73%
    18:00 +6°C° 0 mm 4 m/s 754 mmHg 78%
    19:00 +4°C° 0 mm 3 m/s 755 mmHg 83%
    20:00 +4°C° 0 mm 3 m/s 755 mmHg 86%
    21:00 +3°C° 0 mm 3 m/s 755 mmHg 88%
    22:00 +2°C° 0 mm 3 m/s 756 mmHg 91%
    23:00 +2°C° 0 mm 3 m/s 756 mmHg 92%
    Mostrar mais